This is the latest recevied weather packets stored in our database for station/object K3RUP-1. If no packets are shown the sender has not sent any weather packets the latest 10 day(s).
| Time | Temp. | Humidity | Pressure | Rain* | Wind** | Luminosity | Snow |
|---|---|---|---|---|---|---|---|
| 1778001479 | 27.22° C | 51% | 1010.4 hPa | 0 mm | - | 734 W/m² | - |
| 1778001176 | 26.67° C | 50% | 1010.7 hPa | 0 mm | - | 737 W/m² | - |
| 1778000872 | 27.22° C | 51% | 1010.5 hPa | 0 mm | - | 712 W/m² | - |
| 1778000569 | 27.22° C | 52% | 1010.5 hPa | 0 mm | - | 637 W/m² | - |
| 1777999961 | 26.11° C | 54% | 1010.7 hPa | 0 mm | - | 655 W/m² | - |
| 1777999656 | 25.56° C | 54% | 1010.9 hPa | 0 mm | - | 710 W/m² | - |
| 1777999354 | 25.56° C | 54% | 1011 hPa | 0 mm | - | 695 W/m² | - |
| 1777999052 | 25.56° C | 56% | 1010.8 hPa | 0 mm | - | 646 W/m² | - |
| 1777998750 | 25.56° C | 55% | 1010.9 hPa | 0 mm | - | 655 W/m² | - |
| 1777998447 | 25° C | 54% | 1011 hPa | 0 mm | - | 689 W/m² | - |
| 1777998144 | 25° C | 57% | 1011.2 hPa | 0 mm | - | 714 W/m² | - |
| 1777997841 | 25° C | 56% | 1011.3 hPa | 0 mm | - | 683 W/m² | - |
| 1777997539 | 25° C | 56% | 1011.2 hPa | 0 mm | - | 670 W/m² | - |
| 1777997236 | 24.44° C | 56% | 1011.2 hPa | 0 mm | - | 708 W/m² | - |
| 1777996933 | 25° C | 56% | 1011.2 hPa | 0 mm | - | 739 W/m² | - |
| 1777996630 | 25° C | 57% | 1011.5 hPa | 0 mm | - | 709 W/m² | - |
| 1777996326 | 25° C | 57% | 1011.3 hPa | 0 mm | - | 697 W/m² | - |
| 1777996022 | 25° C | 56% | 1011.4 hPa | 0 mm | - | 703 W/m² | - |
| 1777995718 | 25° C | 55% | 1011.5 hPa | 0 mm | - | 725 W/m² | - |
| 1777995415 | 25.56° C | 54% | 1011.5 hPa | 0 mm | - | 730 W/m² | - |
| 1777995112 | 25.56° C | 52% | 1011.3 hPa | 0 mm | - | 753 W/m² | - |
| 1777994809 | 25.56° C | 52% | 1011.4 hPa | 0 mm | - | 762 W/m² | - |
| 1777994505 | 25° C | 52% | 1011.4 hPa | 0 mm | - | 758 W/m² | - |
| 1777994200 | 25.56° C | 51% | 1011.4 hPa | 0 mm | - | 766 W/m² | - |
| 1777993898 | 25.56° C | 49% | 1011.3 hPa | 0 mm | - | 356 W/m² | - |
* Rain latest hour (hover to see other rain measurements)
** Current wind speed in m/s (hover to see current wind gust speed)